Location: Chandrammap?lem
(16.9200°N, 81.0051°E)
Time: 19:03:55
(UTC+00:00)

Cosmos 1943 Rocket - Pass Details

Date: 29 May 2024
Orbit: 810 x 844 km, 71.0° (Epoch: 16 June)

Event Time Altitude Azimuth Distance (km) Brightness Sun altitude
Rises 14:00:11 0° 335° (NNW) 3,378 6.3 -12.7°
Reaches altitude 10° 14:02:41 10° 330° (NNW) 2,439 5.5 -13.3°
Maximum altitude 14:08:04 51° 256° (WSW) 1,034 3.0 -14.4°
Drops below altitude 10° 14:13:25 10° 181° (S) 2,412 4.3 -15.5°
Enters shadow 14:15:05 - 177° (S) 3,038 4.8 -15.9°
